Hourly Data Report for October 02, 2015

All times are specified in Local Standard Time (LST). Add 1 hour to adjust for Daylight Saving Time where and when it is observed.

RESOLUTE BAY A
NUNAVUT

74°43'01.000" N
94°58'10.000" W
67.70 m
2403498
71924
YRB

Download Data

Hourly Data (October 2015)
Hourly Data Report for October 2, 2015
Temp Definition
°C
Dew Point Temp Definition
°C
Rel Hum Definition
%
Wind Dir Definition
10's deg

Wind Spd Definition
km/h
Visibility Definition
km
Stn Press Definition
kPa
Hmdx Definition


Wind Chill Definition


Weather Definition


TIME
00:00 Legend Double Dagger -4.2 -5.8 89 32 37 4.0 99.03   -13 Snow,Blowing Snow
01:00 Legend Double Dagger -4.5 -7.1 82 32 28 8.1 99.20   -12 Blowing Snow
02:00 Legend Double Dagger -4.1 -7.1 80 32 28 11.3 99.29   -12 Blowing Snow
03:00 Legend Double Dagger -5.1 -7.7 82 32 46 4.0 99.39   -15 Snow,Blowing Snow
04:00 Legend Double Dagger -4.5 -6.8 84 32 37 11.3 99.47   -13 Snow,Blowing Snow
05:00 Legend Double Dagger -3.6 -4.3 95 32 37 11.3 99.55   -12 Snow,Blowing Snow
06:00 Legend Double Dagger -2.9 -3.7 94 32 37 11.3 99.60   -11 Snow
07:00 Legend Double Dagger -2.6 -3.2 96 32 37 9.7 99.64   -11 Snow,Blowing Snow
08:00 Legend Double Dagger -2.2 -2.2 100 36 37 9.7 99.68   -10 Snow
09:00 Legend Double Dagger -2.0 -2.0 100 36 37 4.8 99.71   -10 Snow,Fog
10:00 Legend Double Dagger -2.0 -2.0 100 36 37 11.3 99.78   -10 LegendNANA
11:00 Legend Double Dagger -2.1 -2.1 100 32 37 12.9 99.84   -10 LegendNANA
12:00 Legend Double Dagger -2.3 -2.6 98 32 28 16.1 99.90   -9 Cloudy
13:00 Legend Double Dagger -2.3 -2.6 98 27 37 12.9 99.96   -10 Blowing Snow
14:00 Legend Double Dagger -1.7 -3.3 89 27 37 4.8 100.09   -9 Snow
15:00 Legend Double Dagger -1.9 -3.6 88 27 43 12.9 100.17   -10 Cloudy
16:00 Legend Double Dagger -2.2 -4.2 86 27 52 16.1 100.21   -11 LegendNANA
17:00 Legend Double Dagger -2.8 -4.4 89 26 44 16.1 100.26   -11 LegendNANA
18:00 Legend Double Dagger -2.7 -4.3 89 27 46 1.6 100.33   -12 Snow,Fog
19:00 Legend Double Dagger -2.6 -4.5 87 27 41 1.6 100.38   -11 Snow,Fog
20:00 Legend Double Dagger -2.4 -4.4 86 26 39 16.1 100.43   -11 LegendNANA
21:00 Legend Double Dagger -2.2 -3.8 89 26 45 16.1 100.45   -11 Snow
22:00 Legend Double Dagger -2.2 -4.2 86 26 44 16.1 100.50   -11 Snow
23:00 Legend Double Dagger -2.2 -4.1 87 26 45 16.1 100.53   -11 LegendNANA

Notes on Data Quality.

Legend

  • E = Estimated
  • M = Missing
  • NA = Not Available
  • ‡ = Partner data that is not subject to review by the National Climate Archives
Date modified: